EW9092 Weather Reports


time (UTC)temp
F
wind
direction
speed
knots
gust
knots
rain 1hr
in
rain 24hr
in
rain mn
in
humidity
%
barometer
mb
20260509005921 92 264 2.6 10.4 0.00 0.00 0.00 10 1010.6
20260509005156 91 211 2.6 7.8 0.00 0.00 0.00 10 1010.6
20260509004656 92 337 3.5 8.7 0.00 0.00 0.00 10 1010.6
20260509004155 92 323 4.3 8.7 0.00 0.00 0.00 10 1010.6
20260509003657 92 331 4.3 9.6 0.00 0.00 0.00 10 1010.6
20260509003157 92 284 3.5 9.6 0.00 0.00 0.00 10 1010.6
20260509002653 92 348 5.2 10.4 0.00 0.00 0.00 10 1010.6
20260509002153 92 26 5.2 10.4 0.00 0.00 0.00 10 1010.5
20260509001650 92 265 5.2 11.3 0.00 0.00 0.00 10 1010.6
20260509001149 92 249 3.5 11.3 0.00 0.00 0.00 10 1010.5
20260509000650 92 299 3.5 11.3 0.00 0.00 0.00 10 1010.5
20260509000150 92 293 4.3 11.3 0.00 0.00 0.00 11 1010.6
20260508235649 93 252 4.3 8.7 0.00 0.00 0.00 10 1010.6
20260508235149 93 281 4.3 7.0 0.00 0.00 0.00 10 1010.6
20260508234649 93 276 3.5 11.3 0.00 0.00 0.00 10 1010.6
20260508234411 92 14 4.3 11.3 0.00 0.00 0.00 10 1010.6
20260508233645 92 338 4.3 9.6 0.00 0.00 0.00 10 1010.6
20260508233133 93 277 4.3 12.2 0.00 0.00 0.00 11 1010.7
20260508232627 93 296 3.5 12.2 0.00 0.00 0.00 11 1010.8
20260508232122 93 3 4.3 13.0 0.00 0.00 0.00 11 1010.8
20260508231611 93 307 5.2 13.0 0.00 0.00 0.00 11 1010.8
20260508231105 92 271 5.2 10.4 0.00 0.00 0.00 11 1010.8
20260508230600 92 265 5.2 9.6 0.00 0.00 0.00 11 1010.9
20260508230048 93 288 4.3 9.6 0.00 0.00 0.00 11 1011.0
20260508225545 93 333 4.3 9.6 0.00 0.00 0.00 11 1011.0
20260508225045 93 264 4.3 9.6 0.00 0.00 0.00 11 1011.0
20260508224546 93 252 5.2 12.2 0.00 0.00 0.00 12 1011.0
20260508224045 92 261 7.0 12.2 0.00 0.00 0.00 12 1011.1
20260508223544 92 290 6.1 12.2 0.00 0.00 0.00 11 1011.1
20260508223306 92 242 5.2 10.4 0.00 0.00 0.00 12 1011.1
20260508223036 92 262 4.3 10.4 0.00 0.00 0.00 11 1011.2
20260508222042 93 264 3.5 7.8 0.00 0.00 0.00 12 1011.3
20260508221541 92 265 5.2 11.3 0.00 0.00 0.00 12 1011.3
20260508221042 92 284 5.2 11.3 0.00 0.00 0.00 12 1011.4
20260508220542 92 282 4.3 10.4 0.00 0.00 0.00 12 1011.5
20260508220042 92 299 5.2 9.6 0.00 0.00 0.00 12 1011.6
20260508215541 92 273 6.1 11.3 0.00 0.00 0.00 12 1011.6
20260508215045 92 250 5.2 11.3 0.00 0.00 0.00 13 1011.6
20260508214758 92 233 4.3 11.3 0.00 0.00 0.00 12 1011.8
20260508214028 92 264 5.2 11.3 0.00 0.00 0.00 12 1011.9
20260508213523 92 257 5.2 10.4 0.00 0.00 0.00 13 1012.0
20260508213013 92 238 6.1 11.3 0.00 0.00 0.00 12 1012.1
20260508212508 91 256 7.0 12.2 0.00 0.00 0.00 13 1012.1
20260508212000 91 283 6.1 12.2 0.00 0.00 0.00 12 1012.2
20260508211451 91 342 6.1 11.3 0.00 0.00 0.00 13 1012.3
20260508211205 91 340 7.0 13.0 0.00 0.00 0.00 13 1012.3
20260508210439 91 283 6.1 14.8 0.00 0.00 0.00 13 1012.3
20260508205929 91 275 6.1 11.3 0.00 0.00 0.00 13 1012.4
20260508205423 91 346 6.1 12.2 0.00 0.00 0.00 13 1012.4
20260508204917 91 286 5.2 12.2 0.00 0.00 0.00 13 1012.5
20260508204411 91 349 5.2 10.4 0.00 0.00 0.00 13 1012.6
20260508203908 91 300 5.2 10.4 0.00 0.00 0.00 13 1012.7
20260508203405 91 252 5.2 10.4 0.00 0.00 0.00 13 1012.7
20260508202905 91 297 5.2 9.6 0.00 0.00 0.00 13 1012.8
20260508202407 91 348 5.2 10.4 0.00 0.00 0.00 14 1012.9
20260508201903 91 243 5.2 10.4 0.00 0.00 0.00 13 1012.8
20260508201632 90 238 5.2 10.4 0.00 0.00 0.00 14 1012.9
20260508200905 90 278 5.2 10.4 0.00 0.00 0.00 14 1013.1
20260508200401 90 275 5.2 10.4 0.00 0.00 0.00 14 1013.1
20260508200129 89 259 5.2 11.3 0.00 0.00 0.00 15 1013.2
20260508195401 89 248 5.2 11.3 0.00 0.00 0.00 15 1013.4
20260508194859 90 274 4.3 10.4 0.00 0.00 0.00 15 1013.4
20260508194359 89 243 3.5 7.0 0.00 0.00 0.00 15 1013.4
20260508194120 89 283 3.5 11.3 0.00 0.00 0.00 15 1013.5
20260508193359 89 285 4.3 11.3 0.00 0.00 0.00 15 1013.5
20260508192856 89 286 4.3 11.3 0.00 0.00 0.00 15 1013.5
20260508192606 88 231 2.6 11.3 0.00 0.00 0.00 16 1013.6
20260508191845 88 276 3.5 7.8 0.00 0.00 0.00 15 1013.6
20260508191337 89 203 3.5 7.0 0.00 0.00 0.00 16 1013.7
20260508190839 88 240 3.5 6.1 0.00 0.00 0.00 16 1013.8
20260508190335 88 279 2.6 6.1 0.00 0.00 0.00 16 1013.9
20260508185836 88 342 1.7 5.2 0.00 0.00 0.00 16 1014.0
20260508185336 88 330 1.7 5.2 0.00 0.00 0.00 17 1014.1
20260508185102 87 343 1.7 4.3 0.00 0.00 0.00 17 1014.1
20260508184559 87 242 1.7 3.5 0.00 0.00 0.00 17 1014.2
20260508183833 86 274 2.6 7.0 0.00 0.00 0.00 17 1014.4
20260508183333 87 262 2.6 7.0 0.00 0.00 0.00 17 1014.5
20260508182835 87 285 2.6 7.0 0.00 0.00 0.00 17 1014.5
20260508182331 87 207 1.7 7.0 0.00 0.00 0.00 17 1014.5
20260508182055 87 275 1.7 3.5 0.00 0.00 0.00 18 1014.5
20260508181329 86 264 1.7 6.1 0.00 0.00 0.00 18 1014.6
20260508180829 86 293 1.7 6.1 0.00 0.00 0.00 18 1014.7
20260508180328 85 281 1.7 6.1 0.00 0.00 0.00 18 1014.8
20260508175824 85 233 1.7 6.1 0.00 0.00 0.00 19 1014.9
20260508175324 85 290 1.7 5.2 0.00 0.00 0.00 19 1015.0
20260508174825 84 338 1.7 4.3 0.00 0.00 0.00 19 1015.1
20260508174326 84 224 1.7 4.3 0.00 0.00 0.00 19 1015.2
20260508174057 84 204 0.9 4.3 0.00 0.00 0.00 19 1015.2
20260508173325 83 299 0.9 3.5 0.00 0.00 0.00 20 1015.2
20260508172824 83 268 0.9 3.5 0.00 0.00 0.00 19 1015.2
20260508172321 82 60 0.9 2.6 0.00 0.00 0.00 20 1015.2
20260508171819 82 321 0.9 2.6 0.00 0.00 0.00 21 1015.3
20260508171318 82 286 1.7 3.5 0.00 0.00 0.00 20 1015.4
20260508170815 81 212 2.6 5.2 0.00 0.00 0.00 21 1015.4
20260508170315 81 236 1.7 5.2 0.00 0.00 0.00 20 1015.4
20260508165818 82 277 0.9 4.3 0.00 0.00 0.00 21 1015.5
20260508165317 81 278 0.9 3.5 0.00 0.00 0.00 21 1015.4
20260508164816 81 273 1.7 4.3 0.00 0.00 0.00 21 1015.5
20260508164314 80 227 0.9 4.3 0.00 0.00 0.00 21 1015.7
20260508164246 80 266 0.9 3.5 0.00 0.00 0.00 22 1015.5
20260508163302 80 305 0.9 4.3 0.00 0.00 0.00 22 1015.5
20260508162759 80 188 1.7 4.3 0.00 0.00 0.00 22 1015.7
20260508162256 79 293 0.9 3.5 0.00 0.00 0.00 23 1015.7
20260508161753 79 217 0.9 3.5 0.00 0.00 0.00 23 1015.8
20260508161521 78 233 0.9 3.5 0.00 0.00 0.00 23 1015.8
20260508161019 79 273 1.7 3.5 0.00 0.00 0.00 23 1015.8
20260508160252 78 260 1.7 3.5 0.00 0.00 0.00 23 1015.7
20260508155754 78 240 0.9 3.5 0.00 0.00 0.00 23 1015.7
20260508155250 78 205 0.9 4.3 0.00 0.00 0.00 24 1015.7
20260508154751 77 205 1.7 4.3 0.00 0.00 0.00 24 1015.7
20260508154251 77 231 0.9 4.3 0.00 0.00 0.00 24 1015.7
20260508154015 77 265 0.9 3.5 0.00 0.00 0.00 24 1015.7
20260508153248 77 240 0.9 3.5 0.00 0.00 0.00 25 1015.7
20260508153227 77 219 0.9 3.5 0.00 0.00 0.00 25 1015.7
20260508152242 76 231 0.9 3.5 0.00 0.00 0.00 25 1015.7
20260508151742 75 142 0.9 2.6 0.00 0.00 0.00 27 1015.8
20260508151243 74 226 0.9 2.6 0.00 0.00 0.00 27 1015.8
20260508150741 73 303 0.0 1.7 0.00 0.00 0.00 29 1015.7
20260508150245 72 308 0.9 2.6 0.00 0.00 0.00 30 1015.8
20260508150228 72 4 0.9 2.6 0.00 0.00 0.00 31 1015.8
20260508145243 72 4 0.0 2.6 0.00 0.00 0.00 31 1015.8
20260508144741 72 85 0.0 2.6 0.00 0.00 0.00 32 1015.8
20260508144241 71 86 0.0 0.9 0.00 0.00 0.00 32 1015.7
20260508144008 71 86 0.0 0.0 0.00 0.00 0.00 33 1015.8
20260508143238 70 86 0.9 1.7 0.00 0.00 0.00 34 1015.8
20260508142957 69 86 0.9 1.7 0.00 0.00 0.00 35 1015.7
20260508142239 68 86 0.9 1.7 0.00 0.00 0.00 36 1015.8
20260508141740 68 97 0.0 0.0 0.00 0.00 0.00 36 1015.8
20260508141459 67 97 0.0 0.0 0.00 0.00 0.00 38 1015.7
20260508140735 66 97 0.0 0.0 0.00 0.00 0.00 38 1015.8
20260508140235 66 31 0.0 0.0 0.00 0.00 0.00 40 1015.7
20260508135735 65 31 0.0 0.0 0.00 0.00 0.00 41 1015.7
20260508135234 64 32 0.0 0.9 0.00 0.00 0.00 42 1015.5
20260508134736 63 32 0.0 0.9 0.00 0.00 0.00 43 1015.7
20260508134235 63 33 0.0 0.0 0.00 0.00 0.00 43 1015.5
20260508133736 62 33 0.0 2.6 0.00 0.00 0.00 44 1015.5
20260508133235 61 33 0.0 2.6 0.00 0.00 0.00 48 1015.4
20260508132735 61 359 0.0 2.6 0.00 0.00 0.00 47 1015.3
20260508132458 61 336 0.0 0.0 0.00 0.00 0.00 48 1015.3
20260508131734 60 336 0.0 0.0 0.00 0.00 0.00 48 1015.3
20260508131235 61 144 0.0 0.0 0.00 0.00 0.00 47 1015.2
20260508130736 60 144 0.0 0.0 0.00 0.00 0.00 47 1015.1
20260508130236 60 144 0.0 0.0 0.00 0.00 0.00 48 1015.1
20260508125955 59 144 0.0 0.0 0.00 0.00 0.00 48 1014.9
20260508125230 59 144 0.0 0.0 0.00 0.00 0.00 48 1014.8
20260508124732 58 144 0.0 0.0 0.00 0.00 0.00 48 1014.8
20260508124507 58 144 0.0 0.0 0.00 0.00 0.00 47 1014.8
20260508123950 58 144 0.0 0.9 0.00 0.00 0.00 47 1014.7
20260508123230 58 144 0.0 1.7 0.00 0.00 0.00 47 1014.6
20260508122729 58 144 0.0 1.7 0.00 0.00 0.00 48 1014.6
20260508122456 58 222 0.0 0.0 0.00 0.00 0.00 50 1014.7
20260508121949 58 224 0.0 0.0 0.00 0.00 0.00 51 1014.6
20260508121449 58 225 0.0 0.0 0.00 0.00 0.00 50 1014.5
20260508120725 58 160 0.0 0.0 0.00 0.00 0.00 51 1014.5
20260508120441 58 160 0.0 0.0 0.00 0.00 0.00 50 1014.5
20260508115723 58 160 0.0 0.0 0.00 0.00 0.00 50 1014.4
20260508115224 58 128 0.0 0.0 0.00 0.00 0.00 50 1014.2
20260508114722 58 127 0.0 0.0 0.00 0.00 0.00 50 1014.4
20260508114714 58 128 0.0 0.0 0.00 0.00 0.00 51 1014.4
20260508113722 58 128 0.0 0.0 0.00 0.00 0.00 51 1014.4
20260508113220 58 128 0.0 0.0 0.00 0.00 0.00 50 1014.2
20260508112723 59 128 0.0 0.0 0.00 0.00 0.00 50 1014.2
20260508112220 59 128 0.0 0.0 0.00 0.00 0.00 49 1014.2
20260508111717 59 128 0.0 0.0 0.00 0.00 0.00 50 1014.1
20260508111216 59 127 0.0 0.0 0.00 0.00 0.00 50 1014.1
20260508110715 58 128 0.0 0.0 0.00 0.00 0.00 50 1014.1
20260508110214 58 128 0.0 0.0 0.00 0.00 0.00 49 1014.1
20260508105945 59 128 0.0 0.0 0.00 0.00 0.00 48 1014.1
20260508105213 59 128 0.0 0.0 0.00 0.00 0.00 49 1014.1
20260508104710 60 128 0.0 0.0 0.00 0.00 0.00 47 1014.1
20260508104214 60 128 0.0 0.0 0.00 0.00 0.00 45 1014.1
20260508103707 60 128 0.0 0.0 0.00 0.00 0.00 45 1014.0
20260508103158 61 128 0.0 0.0 0.00 0.00 0.00 44 1014.0
20260508102650 61 128 0.0 0.0 0.00 0.00 0.00 42 1013.9
20260508102407 62 128 0.0 0.0 0.00 0.00 0.00 40 1014.0
20260508101634 62 127 0.0 0.0 0.00 0.00 0.00 39 1014.0
20260508101356 63 128 0.0 0.0 0.00 0.00 0.00 38 1014.0
20260508100624 63 128 0.0 0.0 0.00 0.00 0.00 37 1014.0
20260508100333 63 128 0.0 0.9 0.00 0.00 0.00 37 1013.9
20260508095607 64 127 0.0 0.9 0.00 0.00 0.00 37 1013.9
20260508095102 64 137 0.0 1.7 0.00 0.00 0.00 36 1013.8
20260508094551 63 98 0.0 1.7 0.00 0.00 0.00 37 1013.9
20260508094046 63 133 0.0 0.0 0.00 0.00 0.00 37 1013.9
20260508093540 63 133 0.0 0.0 0.00 0.00 0.00 40 1014.0
20260508093029 64 133 0.0 0.0 0.00 0.00 0.00 39 1014.0
20260508092747 65 133 0.0 0.0 0.00 0.00 0.00 35 1014.0
20260508092019 65 133 0.0 0.9 0.00 0.00 0.00 35 1013.9
20260508091508 65 134 0.0 0.9 0.00 0.00 0.00 35 1013.9
20260508091002 66 134 0.0 0.0 0.00 0.00 0.00 35 1014.0
20260508090455 67 134 0.0 1.7 0.00 0.00 0.00 33 1014.0
20260508090438 67 134 0.9 1.7 0.00 0.00 0.00 33 1014.0
20260508085439 67 145 0.9 2.6 0.00 0.00 0.00 33 1014.0
20260508084934 66 136 1.7 4.3 0.00 0.00 0.00 33 1013.9
20260508084424 66 141 0.9 4.3 0.00 0.00 0.00 33 1013.9
20260508083918 65 126 0.0 2.6 0.00 0.00 0.00 34 1014.0
20260508083636 64 153 0.0 1.7 0.00 0.00 0.00 36 1014.1
20260508083347 62 161 0.0 1.7 0.00 0.00 0.00 38 1014.2
20260508082356 62 155 0.0 0.0 0.00 0.00 0.00 40 1014.2
20260508081849 63 155 0.0 0.0 0.00 0.00 0.00 39 1014.4
20260508081607 63 155 0.0 0.0 0.00 0.00 0.00 39 1014.4
20260508080834 64 155 0.0 0.0 0.00 0.00 0.00 37 1014.4
20260508080328 65 155 0.0 0.0 0.00 0.00 0.00 36 1014.5
20260508075818 65 155 0.0 0.0 0.00 0.00 0.00 36 1014.5
20260508075311 65 155 0.0 0.0 0.00 0.00 0.00 36 1014.6
20260508074805 65 155 0.0 0.0 0.00 0.00 0.00 35 1014.7
20260508074255 66 155 0.0 0.0 0.00 0.00 0.00 32 1014.6
20260508073749 66 155 0.0 0.0 0.00 0.00 0.00 32 1014.7
20260508073244 67 155 0.0 0.0 0.00 0.00 0.00 31 1014.7
20260508072733 67 165 0.0 1.7 0.00 0.00 0.00 31 1014.6
20260508072229 67 131 0.0 1.7 0.00 0.00 0.00 31 1014.7
20260508071722 67 113 0.0 0.9 0.00 0.00 0.00 31 1014.7
20260508071212 67 96 0.0 0.9 0.00 0.00 0.00 31 1014.8
20260508070704 67 116 0.9 1.7 0.00 0.00 0.00 31 1014.8
20260508070200 67 129 0.9 2.6 0.00 0.00 0.00 30 1014.8
20260508065649 68 116 0.9 2.6 0.00 0.00 0.00 30 1014.7
20260508065144 68 121 0.9 2.6 0.00 0.00 0.00 30 1014.7
20260508064638 68 110 0.0 1.7 0.00 0.00 0.00 29 1014.8
20260508064128 68 129 0.0 0.9 0.00 0.00 0.00 29 1014.8
20260508063622 69 113 0.0 1.7 0.00 0.00 0.00 29 1014.8
20260508063121 69 117 0.0 1.7 0.00 0.00 0.00 29 1014.9
20260508062617 69 110 0.0 1.7 0.00 0.00 0.00 29 1015.0
20260508062344 69 133 0.0 1.7 0.00 0.00 0.00 29 1015.0
20260508061616 69 217 0.9 6.1 0.00 0.00 0.00 29 1015.0
20260508061116 69 219 0.9 6.1 0.00 0.00 0.00 30 1015.0
20260508060617 69 343 0.0 0.0 0.00 0.00 0.00 31 1014.8
20260508060114 69 343 0.0 0.0 0.00 0.00 0.00 30 1014.8
20260508055838 70 343 0.0 0.0 0.00 0.00 0.00 29 1014.9
20260508055109 70 343 0.0 1.7 0.00 0.00 0.00 28 1014.8
20260508054611 71 343 0.0 1.7 0.00 0.00 0.00 28 1014.7
20260508054106 71 6 0.0 0.0 0.00 0.00 0.00 27 1014.8
20260508053604 72 219 0.0 0.0 0.00 0.00 0.00 26 1014.8
20260508053103 72 219 0.0 0.9 0.00 0.00 0.00 25 1014.8
20260508052600 73 219 0.9 3.5 0.00 0.00 0.00 25 1014.8
20260508052058 73 214 0.9 3.5 0.00 0.00 0.00 24 1014.7
20260508051822 73 144 0.9 2.6 0.00 0.00 0.00 24 1014.6
20260508051312 73 242 0.9 3.5 0.00 0.00 0.00 25 1014.7
20260508050549 73 212 0.9 3.5 0.00 0.00 0.00 25 1014.7
20260508050042 73 160 0.9 3.5 0.00 0.00 0.00 25 1014.6
20260508045536 73 177 0.9 3.5 0.00 0.00 0.00 25 1014.6
20260508045037 73 165 0.9 2.6 0.00 0.00 0.00 24 1014.6
20260508044533 74 226 0.9 2.6 0.00 0.00 0.00 24 1014.6
20260508044259 74 155 1.7 4.3 0.00 0.00 0.00 24 1014.5
20260508043806 74 144 1.7 4.3 0.00 0.00 0.00 24 1014.5
20260508043035 73 177 1.7 4.3 0.00 0.00 0.00 24 1014.6
20260508042532 74 139 1.7 4.3 0.00 0.00 0.00 24 1014.5
20260508042032 74 146 1.7 4.3 0.00 0.00 0.00 24 1014.5
20260508041531 74 141 0.9 3.5 0.00 0.00 0.00 24 1014.4
20260508041032 74 151 0.9 2.6 0.00 0.00 0.00 24 1014.4
20260508040529 74 147 0.9 2.6 0.00 0.00 0.00 24 1014.4
20260508040028 74 151 0.0 1.7 0.00 0.00 0.00 24 1014.1
20260508035526 75 142 0.0 1.7 0.00 0.00 0.00 24 1014.0
20260508035025 75 142 0.0 1.7 0.00 0.00 0.00 23 1013.9
20260508034523 75 255 0.0 1.7 0.00 0.00 0.00 23 1013.8
20260508034023 75 161 0.9 2.6 0.00 0.00 0.00 23 1013.7
20260508033516 76 21 0.0 2.6 0.00 0.00 0.00 22 1013.7
20260508033011 76 75 0.0 2.6 0.00 0.00 0.00 23 1013.6
20260508032504 76 135 0.9 4.3 0.00 0.00 0.00 22 1013.4
20260508032005 77 139 1.7 5.2 0.00 0.00 0.00 21 1013.3
20260508031504 77 159 2.6 5.2 0.00 0.00 0.00 21 1013.2
20260508031004 77 203 2.6 5.2 0.00 0.00 0.00 21 1012.9
20260508030504 77 224 2.6 6.1 0.00 0.00 0.00 21 1012.8
20260508030005 77 212 3.5 7.0 0.00 0.00 0.00 20 1012.7
20260508025504 78 224 4.3 8.7 0.00 0.00 0.00 20 1012.6
20260508025005 78 234 5.2 10.4 0.00 0.00 0.00 20 1012.4
20260508024504 78 226 5.2 13.0 0.00 0.00 0.00 20 1012.3
20260508024005 78 208 5.2 13.0 0.00 0.00 0.00 19 1012.2
20260508023725 79 212 6.1 13.0 0.00 0.00 0.00 19 1012.0
20260508023005 79 209 6.1 13.0 0.00 0.00 0.00 19 1012.0
20260508022724 79 200 7.0 13.0 0.00 0.00 0.00 19 1012.0
20260508022000 80 231 7.8 13.0 0.00 0.00 0.00 18 1011.8
20260508021500 80 224 8.7 17.4 0.00 0.00 0.00 18 1011.6
20260508021000 82 243 7.8 17.4 0.00 0.00 0.00 17 1011.5
20260508020459 84 276 7.8 12.2 0.00 0.00 0.00 14 1011.5
20260508015959 84 285 7.0 12.2 0.00 0.00 0.00 13 1011.3
20260508015501 85 259 5.2 12.2 0.00 0.00 0.00 13 1011.1
20260508015001 85 291 6.1 13.0 0.00 0.00 0.00 13 1011.0
20260508014459 85 289 7.0 13.0 0.00 0.00 0.00 13 1010.9
20260508013959 86 264 6.1 12.2 0.00 0.00 0.00 13 1010.9
20260508013502 86 266 4.3 9.6 0.00 0.00 0.00 12 1010.8
20260508013003 87 287 3.5 8.7 0.00 0.00 0.00 12 1010.9
20260508012723 87 258 2.6 8.7 0.00 0.00 0.00 12 1010.9
20260508012003 88 251 3.5 11.3 0.00 0.00 0.00 12 1010.9
20260508011504 88 309 2.6 11.3 0.00 0.00 0.00 12 1010.7
20260508011004 88 243 1.7 7.8 0.00 0.00 0.00 12 1010.7
20260508010503 88 268 1.7 3.5 0.00 0.00 0.00 11 1010.7
20260508010002 88 253 1.7 5.2 0.00 0.00 0.00 12 1010.6